Regional Weather Roundup
Issued by NWS

Home | Current Version | Previous Version | Text Only | Print | Product List | Glossary Off
Versions: 1 2 3 4 5 6 7 8 9 10 11 12 13 14 15 16 17 18 19 20 21 22 23 24 25 26 27 28 29 30 31 32 33 34 35 36 37 38 39 40 41 42 43 44 45 46 47 48 49 50

000
ASUS43 KBIS 180702
RWRND

NORTH DAKOTA REGIONAL WEATHER ROUNDUP
NATIONAL WEATHER SERVICE BISMARCK ND
100 AM CST SUN FEB 18 2018

NOTE: "FAIR" INDICATES FEW OR NO CLOUDS BELOW 12,000 FEET WITH NO
SIGNIFICANT WEATHER AND/OR OBSTRUCTIONS TO VISIBILITY.


NDZ001>003-009>011-017-180800-
NORTHWEST NORTH DAKOTA

CITY           SKY/WX    TMP DP  RH WIND       PRES   REMARKS
WILLISTON      LGT SNOW  12   6  77 E13       29.79F WCI  -3
MINOT          CLOUDY    10   2  69 E8        29.86F WCI  -2
MINOT AFB      CLOUDY     9   2  72 E8        29.85F WCI  -3
$$

NDZ018>021-031>035-040>046-180800-
SOUTHWEST NORTH DAKOTA

CITY           SKY/WX    TMP DP  RH WIND       PRES   REMARKS
BISMARCK       CLOUDY    17  10  74 NE9       29.81F WCI   6
DICKINSON      LGT SNOW  14  11  87 E16       29.62F FOG     WCI  -2
GARRISON         N/A     11   4  73 E12       29.82F WCI  -3
HETTINGER ARPT CLOUDY    16   9  74 E20       29.62F WCI  -1
$$

NDZ004>008-012>016-024-026-027-054-180800-
NORTHEAST NORTH DAKOTA

CITY           SKY/WX    TMP DP  RH WIND       PRES   REMARKS
GRAND FORKS    MOCLDY    11   6  81 SE3       29.98F
GRND FRKS AFB  FAIR       7   3  85 E5        29.98R WCI  -2
DEVILS LAKE    CLOUDY     6   1  80 NW3       29.93R
$$

NDZ022-023-025-028>030-036>039-047>053-180800-
SOUTHEAST NORTH DAKOTA

CITY           SKY/WX    TMP DP  RH WIND       PRES   REMARKS
FARGO          CLOUDY    14   8  77 N3        29.99R
JAMESTOWN      CLOUDY    13   8  81 S3        29.90F
$$





USA.gov is the U.S. government's official web portal to all federal, state and local government web resources and services.